Weather History for Grand Forks, ND

Change the Weather History Date:

Friday, June 14, 2013

  Actual Average Record
Temperature  
Mean Temperature 72 °F 64 °F  
Max Temperature 81 °F 76 °F 93 °F (1995)
Min Temperature 62 °F 52 °F 35 °F (1958)
Degree Days  
Heating Degree Days 0 3  
Month to date heating degree days 77 67  
Since 1 June heating degree days 77 67  
Since 1 July heating degree days 9965 9479  
Cooling Degree Days 7 2  
Month to date cooling degree days 8 24  
Year to date cooling degree days 17 41  
Since 1 June cooling degree days 8 24  
Growing Degree Days 21 (Base 50)    
Moisture  
Dew Point 57 °F    
Average Humidity 69    
Maximum Humidity 93    
Minimum Humidity 45    
Precipitation  
Precipitation 0.02 in 0.11 in 2.59 in (1994)
Month to date precipitation 2.31 1.51  
Year to date precipitation 10.48 7.23  
Snow  
Snow 0.00 in 0.00 in - ()
Month to date snowfall 0.0 0.0  
Since 1 June snowfall 0.0 0.0  
Since 1 July snowfall 50.2 47.4  
Snow Depth 0.00 in    
Sea Level Pressure  
Sea Level Pressure 29.84 in    
Wind  
Wind Speed 12 mph (SSE)    
Max Wind Speed 30 mph    
Max Gust Speed 37 mph    
Visibility 10 miles    
Events Rain    
T = Trace of Precipitation, MM = Missing Value Source: NWS Daily Summary

Daily Weather History Graph

Daily Weather History Graph

Search for Another Location

Airport:

Trip Planner

Search our weather history database for the weather conditions in past years. The results will help you decide how hot, cold, wet, or windy it might be!

Date:

Astronomy

Jun. 14, 2013 Rise Set
Actual Time 5:28 AM CDT 9:29 PM CDT
Civil Twilight 4:47 AM CDT 10:10 PM CDT
Nautical Twilight 3:50 AM CDT 11:07 PM CDT
Astronomical Twilight 2:15 AM CDT 12:43 AM CDT
Moon 11:27 AM CDT (6/14) 12:15 AM CDT (6/14)
Length of Visible Light 17h 22m
Length of Day
16h 00m
Waxing Crescent, 30% of the Moon is Illuminated
Jun 14
Waxing Crescent
Jun 16
First Quarter
Jun 23
Full
Jun 29
Last Quarter
Jul 8
New

Hourly Weather History & Observations

Time (CDT) Temp. Heat Index Dew Point Humidity Pressure Visibility Wind Dir Wind Speed Gust Speed Precip Events Conditions
12:53 AM 64.9 °F - 53.1 °F 65% 29.96 in 10.0 mi SE 8.1 mph - N/A   Clear
1:53 AM 63.0 °F - 53.1 °F 70% 29.96 in 10.0 mi SE 8.1 mph - N/A   Clear
2:53 AM 63.0 °F - 53.1 °F 70% 29.93 in 10.0 mi SE 8.1 mph - N/A   Clear
3:53 AM 62.1 °F - 53.1 °F 72% 29.92 in 10.0 mi SE 8.1 mph - N/A   Clear
4:53 AM 62.1 °F - 54.0 °F 75% 29.91 in 10.0 mi SE 8.1 mph - N/A   Partly Cloudy
5:53 AM 62.1 °F - 54.0 °F 75% 29.92 in 10.0 mi SE 10.4 mph - N/A   Mostly Cloudy
6:53 AM 63.0 °F - 54.0 °F 72% 29.94 in 10.0 mi SE 10.4 mph - N/A   Overcast
7:53 AM 66.0 °F - 55.0 °F 68% 29.92 in 10.0 mi SE 12.7 mph - N/A   Overcast
8:53 AM 70.0 °F - 55.0 °F 59% 29.91 in 10.0 mi SSE 18.4 mph - N/A   Mostly Cloudy
9:53 AM 71.1 °F - 55.0 °F 57% 29.92 in 10.0 mi SSE 13.8 mph - N/A   Overcast
10:53 AM 70.0 °F - 55.9 °F 61% 29.88 in 10.0 mi South 11.5 mph - 0.00 in Rain Light Rain
11:53 AM 73.0 °F - 55.9 °F 55% 29.78 in 10.0 mi SE 23.0 mph 33.4 mph 0.00 in   Overcast
12:53 PM 73.9 °F - 55.9 °F 53% 29.82 in 10.0 mi SE 15.0 mph 24.2 mph N/A   Overcast
1:53 PM 78.1 °F - 55.9 °F 46% 29.81 in 10.0 mi SSE 17.3 mph 25.3 mph N/A   Mostly Cloudy
2:53 PM 75.9 °F - 55.9 °F 50% 29.81 in 10.0 mi South 11.5 mph 23.0 mph N/A   Mostly Cloudy
3:53 PM 80.1 °F 80.4 °F 57.0 °F 45% 29.78 in 10.0 mi South 15.0 mph 23.0 mph N/A   Mostly Cloudy
4:53 PM 80.1 °F 80.6 °F 57.9 °F 47% 29.75 in 10.0 mi SSE 17.3 mph 27.6 mph N/A   Mostly Cloudy
5:53 PM 78.1 °F - 57.9 °F 50% 29.74 in 10.0 mi SSE 16.1 mph - N/A   Overcast
6:53 PM 77.0 °F - 59.0 °F 54% 29.73 in 10.0 mi SE 11.5 mph - N/A   Overcast
7:53 PM 77.0 °F - 60.1 °F 56% 29.72 in 10.0 mi SSE 15.0 mph - N/A   Overcast
8:53 PM 72.0 °F - 63.0 °F 73% 29.73 in 8.0 mi SSW 4.6 mph - 0.01 in Rain Light Rain
9:53 PM 71.1 °F - 64.9 °F 81% 29.74 in 10.0 mi South 6.9 mph - 0.01 in   Overcast
10:53 PM 69.1 °F - 64.9 °F 87% 29.76 in 10.0 mi Calm Calm - N/A   Mostly Cloudy
11:53 PM 64.9 °F - 63.0 °F 93% 29.77 in 10.0 mi SSW 4.6 mph - N/A   Clear